This is the latest recevied weather packets stored in our database for station/object W3JBS-2. If no packets are shown the sender has not sent any weather packets the latest 10 day(s).
| Time | Temp. | Humidity | Pressure | Rain* | Wind** | Luminosity | Snow |
|---|---|---|---|---|---|---|---|
| 1777639918 | 10.56° C | 66% | 1014 hPa | 0 mm | - | 1617 W/m² | - |
| 1777639017 | 10° C | 67% | 1014.2 hPa | 0 mm | - | 1621 W/m² | - |
| 1777638117 | 9.44° C | 72% | 1014.1 hPa | 0 mm | - | 1622 W/m² | - |
| 1777637217 | 8.89° C | 73% | 1014.1 hPa | 0 mm | - | 1635 W/m² | - |
| 1777636317 | 8.33° C | 77% | 1014.2 hPa | 0 mm | - | 1656 W/m² | - |
| 1777635416 | 7.78° C | 80% | 1014.2 hPa | 0 mm | - | 1675 W/m² | - |
| 1777634516 | 6.67° C | 83% | 1014.2 hPa | 0 mm | - | 1693 W/m² | - |
| 1777633617 | 6.11° C | 85% | 1014 hPa | 0 mm | - | 1707 W/m² | - |
| 1777632717 | 5° C | 86% | 1013.9 hPa | 0 mm | - | 1721 W/m² | - |
| 1777631817 | 4.44° C | 86% | 1014 hPa | 0 mm | - | 1730 W/m² | - |
| 1777630917 | 3.89° C | 85% | 1013.9 hPa | 0 mm | - | 1737 W/m² | - |
| 1777630016 | 3.89° C | 85% | 1013.8 hPa | 0 mm | - | 1737 W/m² | - |
| 1777629116 | 3.89° C | 85% | 1013.7 hPa | 0 mm | - | 1737 W/m² | - |
| 1777628217 | 3.89° C | 84% | 1013.7 hPa | 0 mm | - | 1737 W/m² | - |
| 1777627317 | 3.89° C | 83% | 1013.6 hPa | 0 mm | - | 1737 W/m² | - |
| 1777626417 | 4.44° C | 83% | 1013.4 hPa | 0 mm | - | 1737 W/m² | - |
| 1777625516 | 5° C | 82% | 1013.2 hPa | 0 mm | - | 1737 W/m² | - |
| 1777624616 | 5° C | 81% | 1013.1 hPa | 0 mm | - | 1737 W/m² | - |
| 1777623717 | 5.56° C | 79% | 1013 hPa | 0 mm | - | 1735 W/m² | - |
| 1777622817 | 6.11° C | 79% | 1013 hPa | 0 mm | - | 1735 W/m² | - |
| 1777621917 | 6.11° C | 79% | 1012.9 hPa | 0 mm | - | 1733 W/m² | - |
| 1777621017 | 6.11° C | 79% | 1012.7 hPa | 0 mm | - | 1733 W/m² | - |
| 1777620116 | 6.67° C | 78% | 1012.6 hPa | 0 mm | - | 1733 W/m² | - |
| 1777619216 | 6.67° C | 77% | 1012.4 hPa | 0 mm | - | 1733 W/m² | - |
| 1777618317 | 7.22° C | 76% | 1012.3 hPa | 0 mm | - | 1733 W/m² | - |
* Rain latest hour (hover to see other rain measurements)
** Current wind speed in m/s (hover to see current wind gust speed)